| time (UTC) | temp F | wind direction | speed MPH | gust MPH | rain 1hr in | rain 24hr in | rain mn in | humidity % | barometer mb |
| 20260507014044 | 55 | 0.0 | 0.0 | 0.00 | 0.49 | 0.34 | 83 | 1017.1 | |
| 20260507013029 | 55 | 0.0 | 0.0 | 0.00 | 0.50 | 0.34 | 81 | 1016.7 | |
| 20260507012017 | 56 | 0.0 | 0.0 | 0.00 | 0.50 | 0.34 | 79 | 1016.8 | |
| 20260507011043 | 56 | 0.0 | 0.0 | 0.00 | 0.52 | 0.34 | 76 | 1017.0 | |
| 20260507010027 | 57 | 0.0 | 0.0 | 0.00 | 0.52 | 0.34 | 72 | 1017.0 | |
| 20260507005032 | 57 | 0.0 | 0.0 | 0.00 | 0.52 | 0.34 | 72 | 1016.9 | |
| 20260507004021 | 58 | 77 | 0.0 | 1.0 | 0.00 | 0.53 | 0.34 | 71 | 1016.7 |
| 20260507003025 | 58 | 0.0 | 0.0 | 0.00 | 0.53 | 0.34 | 69 | 1016.4 | |
| 20260507002030 | 58 | 346 | 0.0 | 1.0 | 0.00 | 0.54 | 0.34 | 68 | 1016.1 |
| 20260507001018 | 58 | 0.0 | 0.0 | 0.00 | 0.57 | 0.34 | 68 | 1015.8 | |
| 20260507000023 | 59 | 201 | 0.0 | 2.0 | 0.00 | 0.57 | 0.34 | 69 | 1015.6 |
| 20260506235028 | 59 | 308 | 0.0 | 1.0 | 0.00 | 0.58 | 0.34 | 69 | 1015.5 |
| 20260506234033 | 60 | 2 | 0.0 | 1.0 | 0.00 | 0.59 | 0.34 | 69 | 1015.4 |
| 20260506233021 | 60 | 0.0 | 0.0 | 0.00 | 0.60 | 0.34 | 68 | 1015.2 | |
| 20260506232026 | 60 | 0.0 | 0.0 | 0.00 | 0.61 | 0.34 | 66 | 1015.3 | |
| 20260506231031 | 60 | 0.0 | 0.0 | 0.00 | 0.63 | 0.34 | 66 | 1015.4 | |
| 20260506230019 | 61 | 0.0 | 1.0 | 0.00 | 0.66 | 0.34 | 65 | 1015.3 | |
| 20260506225023 | 61 | 90 | 0.0 | 1.0 | 0.00 | 0.74 | 0.34 | 64 | 1015.7 |
| 20260506224028 | 62 | 0.0 | 1.0 | 0.00 | 0.78 | 0.34 | 62 | 1015.6 | |
| 20260506223017 | 62 | 221 | 0.0 | 2.0 | 0.00 | 0.78 | 0.34 | 60 | 1015.6 |
| 20260506222022 | 63 | 38 | 0.0 | 1.0 | 0.00 | 0.78 | 0.34 | 61 | 1015.9 |
| 20260506221026 | 61 | 72 | 0.0 | 1.0 | 0.00 | 0.80 | 0.34 | 62 | 1015.8 |
| 20260506220032 | 61 | 0.0 | 0.0 | 0.00 | 0.80 | 0.34 | 64 | 1016.2 | |
| 20260506215019 | 60 | 297 | 0.0 | 1.0 | 0.00 | 0.81 | 0.34 | 64 | 1016.3 |
| 20260506214044 | 60 | 0.0 | 0.0 | 0.00 | 0.83 | 0.34 | 64 | 1016.3 | |
| 20260506213029 | 60 | 353 | 0.0 | 1.0 | 0.00 | 0.83 | 0.34 | 63 | 1016.1 |
| 20260506212017 | 60 | 297 | 0.0 | 1.0 | 0.00 | 0.84 | 0.34 | 64 | 1016.5 |
| 20260506211022 | 60 | 0.0 | 0.0 | 0.00 | 0.84 | 0.34 | 64 | 1016.7 | |
| 20260506210028 | 59 | 0.0 | 0.0 | 0.00 | 0.84 | 0.34 | 64 | 1016.8 | |
| 20260506205032 | 59 | 340 | 1.0 | 2.0 | 0.00 | 0.84 | 0.34 | 65 | 1016.6 |
| 20260506204021 | 59 | 323 | 0.0 | 1.0 | 0.00 | 0.85 | 0.34 | 66 | 1016.8 |
| 20260506203026 | 59 | 322 | 1.0 | 3.0 | 0.00 | 0.85 | 0.34 | 65 | 1016.8 |
| 20260506202050 | 60 | 328 | 2.0 | 6.0 | 0.00 | 0.86 | 0.34 | 65 | 1015.9 |
| 20260506201019 | 60 | 331 | 1.0 | 2.0 | 0.00 | 0.86 | 0.34 | 63 | 1015.9 |
| 20260506200023 | 59 | 329 | 1.0 | 3.0 | 0.00 | 0.86 | 0.34 | 65 | 1016.5 |
| 20260506195028 | 59 | 332 | 0.0 | 2.0 | 0.00 | 0.86 | 0.34 | 67 | 1016.8 |
| 20260506194016 | 59 | 348 | 0.0 | 2.0 | 0.00 | 0.86 | 0.34 | 67 | 1016.9 |
| 20260506193021 | 60 | 341 | 1.0 | 4.0 | 0.00 | 0.86 | 0.34 | 66 | 1016.9 |
| 20260506192027 | 60 | 319 | 1.0 | 4.0 | 0.00 | 0.87 | 0.34 | 66 | 1016.8 |
| 20260506191034 | 60 | 0.0 | 3.0 | 0.00 | 0.87 | 0.34 | 66 | 1016.5 | |
| 20260506190019 | 61 | 341 | 1.0 | 3.0 | 0.00 | 0.87 | 0.34 | 64 | 1016.6 |
| 20260506185024 | 61 | 254 | 0.0 | 2.0 | 0.00 | 0.87 | 0.34 | 65 | 1016.3 |
| 20260506184049 | 61 | 83 | 0.0 | 2.0 | 0.00 | 0.87 | 0.34 | 64 | 1016.6 |
| 20260506183017 | 61 | 339 | 3.0 | 9.0 | 0.00 | 0.87 | 0.34 | 65 | 1016.5 |
| 20260506182042 | 63 | 353 | 0.0 | 3.0 | 0.00 | 0.87 | 0.34 | 63 | 1016.5 |
| 20260506181027 | 62 | 284 | 0.0 | 2.0 | 0.00 | 0.87 | 0.34 | 65 | 1016.4 |
| 20260506180032 | 61 | 49 | 1.0 | 3.0 | 0.00 | 0.87 | 0.34 | 65 | 1016.6 |
| 20260506175020 | 61 | 302 | 1.0 | 4.0 | 0.00 | 0.87 | 0.34 | 65 | 1016.8 |
| 20260506174025 | 61 | 203 | 0.0 | 2.0 | 0.00 | 0.87 | 0.34 | 65 | 1016.9 |
| 20260506173029 | 60 | 331 | 1.0 | 3.0 | 0.00 | 0.87 | 0.34 | 67 | 1016.8 |
| 20260506172017 | 60 | 353 | 1.0 | 3.0 | 0.00 | 0.87 | 0.34 | 69 | 1016.6 |
| 20260506171043 | 59 | 270 | 0.0 | 1.0 | 0.00 | 0.87 | 0.34 | 69 | 1016.7 |
| 20260506170028 | 59 | 306 | 1.0 | 2.0 | 0.00 | 0.88 | 0.34 | 69 | 1016.4 |
| 20260506165032 | 58 | 334 | 1.0 | 3.0 | 0.00 | 0.89 | 0.34 | 71 | 1016.4 |
| 20260506164020 | 58 | 309 | 1.0 | 7.0 | 0.00 | 0.95 | 0.34 | 73 | 1016.8 |
| 20260506163025 | 60 | 301 | 1.0 | 3.0 | 0.00 | 0.97 | 0.34 | 72 | 1016.5 |
| 20260506162031 | 59 | 88 | 1.0 | 3.0 | 0.00 | 0.97 | 0.34 | 73 | 1016.8 |
| 20260506161018 | 59 | 277 | 1.0 | 2.0 | 0.00 | 0.97 | 0.34 | 74 | 1017.0 |
| 20260506160024 | 57 | 50 | 0.0 | 3.0 | 0.00 | 0.97 | 0.34 | 77 | 1016.6 |
| 20260506155109 | 56 | 305 | 0.0 | 2.0 | 0.00 | 0.97 | 0.34 | 78 | 1016.8 |
| 20260506154016 | 56 | 148 | 0.0 | 3.0 | 0.00 | 0.99 | 0.34 | 78 | 1016.7 |
| 20260506153022 | 57 | 308 | 1.0 | 2.0 | 0.00 | 1.00 | 0.34 | 79 | 1016.5 |
| 20260506152026 | 55 | 311 | 1.0 | 2.0 | 0.00 | 1.00 | 0.34 | 80 | 1016.8 |
| 20260506151031 | 55 | 220 | 1.0 | 3.0 | 0.00 | 1.01 | 0.34 | 80 | 1016.9 |
| 20260506150019 | 55 | 296 | 1.0 | 4.0 | 0.00 | 1.01 | 0.34 | 81 | 1016.8 |
| 20260506145024 | 54 | 11 | 1.0 | 4.0 | 0.00 | 1.01 | 0.34 | 84 | 1016.6 |
| 20260506144110 | 53 | 183 | 0.0 | 4.0 | 0.00 | 1.01 | 0.34 | 89 | 1016.7 |
| 20260506143017 | 53 | 334 | 1.0 | 4.0 | 0.00 | 1.01 | 0.34 | 92 | 1016.6 |
| 20260506142022 | 53 | 23 | 0.0 | 2.0 | 0.00 | 1.02 | 0.34 | 96 | 1016.0 |
| 20260506141028 | 51 | 298 | 1.0 | 3.0 | 0.00 | 1.02 | 0.34 | 96 | 1015.8 |
| 20260506140032 | 51 | 78 | 0.0 | 2.0 | 0.00 | 1.06 | 0.34 | 99 | 1015.4 |
| 20260506135040 | 50 | 332 | 1.0 | 3.0 | 0.00 | 1.23 | 0.34 | 99 | 1015.6 |
| 20260506134025 | 49 | 308 | 1.0 | 2.0 | 0.00 | 1.29 | 0.34 | 99 | 1015.0 |
| 20260506133030 | 49 | 286 | 1.0 | 2.0 | 0.00 | 1.35 | 0.34 | 99 | 1014.7 |
| 20260506132018 | 48 | 0.0 | 2.0 | 0.00 | 1.39 | 0.34 | 99 | 1015.0 | |
| 20260506131023 | 48 | 0.0 | 0.0 | 0.00 | 1.39 | 0.34 | 99 | 1015.1 | |
| 20260506130028 | 48 | 0.0 | 0.0 | 0.00 | 1.39 | 0.34 | 99 | 1014.6 | |
| 20260506125053 | 47 | 0.0 | 0.0 | 0.00 | 1.39 | 0.34 | 99 | 1015.1 | |
| 20260506124042 | 47 | 0.0 | 0.0 | 0.00 | 1.39 | 0.34 | 99 | 1014.9 | |
| 20260506123026 | 47 | 0.0 | 0.0 | 0.00 | 1.39 | 0.34 | 99 | 1014.7 | |
| 20260506122030 | 47 | 0.0 | 0.0 | 0.00 | 1.39 | 0.34 | 99 | 1014.8 | |
| 20260506121019 | 47 | 289 | 0.0 | 1.0 | 0.00 | 1.39 | 0.34 | 99 | 1014.8 |
| 20260506120044 | 46 | 0.0 | 0.0 | 0.00 | 1.39 | 0.34 | 99 | 1014.1 | |
| 20260506115049 | 46 | 0.0 | 0.0 | 0.00 | 1.39 | 0.34 | 99 | 1014.2 | |
| 20260506114033 | 46 | 0.0 | 0.0 | 0.00 | 1.39 | 0.34 | 99 | 1014.2 | |
| 20260506113042 | 46 | 0.0 | 0.0 | 0.00 | 1.39 | 0.34 | 99 | 1014.1 | |
| 20260506112027 | 46 | 0.0 | 0.0 | 0.00 | 1.39 | 0.34 | 99 | 1014.0 | |
| 20260506111031 | 46 | 0.0 | 0.0 | 0.00 | 1.39 | 0.34 | 99 | 1013.8 | |
| 20260506110019 | 45 | 0.0 | 0.0 | 0.00 | 1.39 | 0.34 | 99 | 1013.3 | |
| 20260506105024 | 45 | 0.0 | 0.0 | 0.00 | 1.39 | 0.34 | 99 | 1013.5 | |
| 20260506104029 | 45 | 0.0 | 0.0 | 0.00 | 1.39 | 0.34 | 99 | 1013.7 | |
| 20260506103034 | 45 | 316 | 0.0 | 1.0 | 0.00 | 1.39 | 0.34 | 99 | 1013.6 |
| 20260506102022 | 45 | 166 | 0.0 | 1.0 | 0.00 | 1.39 | 0.34 | 99 | 1013.0 |
| 20260506101030 | 45 | 0.0 | 0.0 | 0.00 | 1.39 | 0.34 | 99 | 1013.4 | |
| 20260506100032 | 45 | 288 | 0.0 | 1.0 | 0.01 | 1.39 | 0.34 | 99 | 1013.2 |
| 20260506095020 | 45 | 0.0 | 0.0 | 0.04 | 1.39 | 0.34 | 99 | 1013.6 | |
| 20260506094025 | 45 | 43 | 0.0 | 2.0 | 0.04 | 1.39 | 0.34 | 99 | 1012.8 |
| 20260506093030 | 45 | 0.0 | 0.0 | 0.04 | 1.39 | 0.34 | 99 | 1013.0 | |
| 20260506092018 | 45 | 28 | 0.0 | 2.0 | 0.05 | 1.39 | 0.34 | 99 | 1012.9 |
| 20260506091023 | 45 | 0.0 | 0.0 | 0.05 | 1.39 | 0.34 | 99 | 1013.2 | |
| 20260506090049 | 46 | 165 | 0.0 | 1.0 | 0.04 | 1.38 | 0.32 | 99 | 1013.0 |
| 20260506085033 | 46 | 3 | 0.0 | 1.0 | 0.01 | 1.35 | 0.30 | 99 | 1012.8 |
| 20260506084058 | 46 | 307 | 0.0 | 2.0 | 0.01 | 1.35 | 0.30 | 99 | 1012.5 |
| 20260506083026 | 46 | 0.0 | 0.0 | 0.01 | 1.35 | 0.30 | 99 | 1012.2 | |
| 20260506082031 | 46 | 348 | 0.0 | 1.0 | 0.00 | 1.34 | 0.28 | 99 | 1012.0 |
| 20260506081035 | 46 | 317 | 1.0 | 3.0 | 0.00 | 1.34 | 0.28 | 99 | 1011.9 |
| 20260506073022 | 48 | 360 | 0.0 | 1.0 | 0.00 | 1.34 | 0.28 | 99 | 1011.7 |
| 20260506072026 | 48 | 325 | 0.0 | 2.0 | 0.08 | 1.34 | 0.28 | 99 | 1012.1 |
| 20260506071031 | 48 | 350 | 0.0 | 1.0 | 0.24 | 1.34 | 0.28 | 99 | 1012.5 |
| 20260506062023 | 49 | 306 | 0.0 | 3.0 | 0.19 | 1.25 | 0.20 | 99 | 1011.9 |
| 20260506061027 | 49 | 266 | 1.0 | 3.0 | 0.03 | 1.09 | 0.04 | 99 | 1011.7 |
| 20260506051023 | 49 | 0.0 | 2.0 | 0.02 | 1.06 | 0.01 | 99 | 1010.5 | |
| 20260506045033 | 50 | 321 | 0.0 | 3.0 | 0.01 | 1.05 | 1.05 | 99 | 1010.5 |
| 20260506044021 | 50 | 344 | 0.0 | 2.0 | 0.01 | 1.05 | 1.05 | 99 | 1011.0 |
| 20260506043026 | 50 | 4 | 0.0 | 2.0 | 0.02 | 1.05 | 1.05 | 99 | 1011.0 |
| 20260506042031 | 50 | 47 | 0.0 | 3.0 | 0.06 | 1.05 | 1.05 | 99 | 1011.0 |
| 20260506041018 | 50 | 349 | 0.0 | 4.0 | 0.07 | 1.04 | 1.04 | 99 | 1010.9 |
| 20260506040024 | 51 | 335 | 1.0 | 4.0 | 0.08 | 1.04 | 1.04 | 99 | 1010.9 |
| 20260506035029 | 51 | 341 | 0.0 | 2.0 | 0.09 | 1.04 | 1.04 | 99 | 1010.7 |
| 20260506034038 | 51 | 9 | 0.0 | 2.0 | 0.09 | 1.04 | 1.04 | 99 | 1010.5 |
| 20260506033022 | 51 | 351 | 0.0 | 1.0 | 0.09 | 1.03 | 1.03 | 99 | 1010.3 |
| 20260506032047 | 51 | 288 | 0.0 | 4.0 | 0.06 | 0.99 | 0.99 | 99 | 1010.2 |
| 20260506031032 | 51 | 0.0 | 1.0 | 0.05 | 0.97 | 0.97 | 99 | 1010.1 | |
| 20260506030020 | 51 | 307 | 0.0 | 4.0 | 0.04 | 0.96 | 0.96 | 99 | 1009.7 |
| 20260506025024 | 52 | 342 | 1.0 | 6.0 | 0.03 | 0.95 | 0.95 | 99 | 1009.9 |
| 20260506024029 | 52 | 337 | 1.0 | 4.0 | 0.05 | 0.95 | 0.95 | 99 | 1009.5 |
| 20260506023018 | 52 | 32 | 0.0 | 3.0 | 0.05 | 0.94 | 0.94 | 99 | 1009.3 |
| 20260506022023 | 53 | 334 | 1.0 | 7.0 | 0.04 | 0.93 | 0.93 | 99 | 1009.2 |
| 20260506021027 | 53 | 301 | 2.0 | 7.0 | 0.05 | 0.92 | 0.92 | 99 | 1009.1 |
| 20260506020053 | 54 | 354 | 1.0 | 4.0 | 0.05 | 0.92 | 0.92 | 99 | 1008.6 |
| 20260506015021 | 54 | 338 | 0.0 | 2.0 | 0.05 | 0.92 | 0.92 | 99 | 1008.2 |